CZ-4 DEB

Satellite information

Favourite Embed

Satellite Type and Status

DEBRISIN ORBIT

Key statistics

Satellite CZ-4 DEB at a glance.

Uptime

12886

Days in orbit

Revolutions

≈ 14.5

Per day

Orbit

SSO

Sun Synchronous Orbit

Inclination

98.3

Latest

Satellite identification and parameters

Extended collection of information and parameters for CZ-4 DEB.

Object identification

Identified? True

Debris? True

Object name: CZ-4 DEB

International designator: 1990-081DJ

Object number (NORAD): 37622

Object ID (CCSDS): 37622

Country: PEOPLES REPUBLIC OF CHINA (PRC)

Current information (Y/N): Y

RCS size: SMALL

Orbital parameters

Period: 99.483 minutes

Inclination: 98.3245 deg

SMA: 7112.009 km

Apoapsis: 757.381 km

Periapsis: 710.367 km

RAAN: 21.7303 deg

Eccentricy: 0.00330525

Argument of periapsis: 173.872 deg

Mean anomaly: 204.8457 deg

Mean motion: 14.47485871 rev/day

Mean motion (dot): 0.00004101 rev/day2

B* drag term: 0.001120224 1/REarth

Two-line elements (TLE)

Creation date: Dec. 14, 2025, 3:07 a.m.

Reference frame: TEME

Reference center: EARTH

Epoch: Dec. 13, 2025, 8:47 a.m. UTC

TLE line 0: 0 CZ-4 DEB

TLE line 1: 1 37622U 90081DJ 25347.36611392 .00004101 00000-0 11202-2 0 9994

TLE line 2: 2 37622 98.3245 21.7303 0033053 173.8720 204.8457 14.47485871305008

Live tracking on map

Real-time ground track for satellite CZ-4 DEB.

In-orbit conjunctions

A list of the most updated potential collisions computed for object CZ-4 DEB.

Target Orbit TCA Probability of collision Miss distance Type
IRIDIUM 69 LEO 2025-10-31 04:08:59 0.0006171175 131.0 (m) PAYLOAD
CZ-6A R/B LEO 2025-09-26 02:45:45 0.0003892952 435.0 (m) ROCKET BODY
COSMOS 468 LEO 2024-11-13 02:18:20 0.0001281038 93.0 (m) PAYLOAD
JAWSAT SSO 2024-06-07 11:08:04 0.0001065651 523.0 (m) PAYLOAD
FREGAT R/B LEO 2024-06-01 16:46:10 0.0004327201 242.0 (m) ROCKET BODY

Associated space launch

Chinese polar orbiting meteorological satellite

CZ-4 DEB was lifted into orbit during the mission ‘Long March 4A | Feng Yun 1B’, on board a Long March 4A space rocket.

The launch took place on Sept. 3, 1990, 12:53 a.m. from Launch Complex 7.

For more information about the launch, click the button.

Launch to space Long March 4A | Feng Yun 1B
Long March 4A | Feng Yun 1B

Agency: N/A

Status: Launch Successful

Launch date: Sept. 3, 1990, 12:53 a.m. UTC

Rocket: Long March 4A

Launch pad: Launch Complex 7

Location: Taiyuan Satellite Launch Center, People's Republic of China

...

Latest news about this satellite

There are no fresh news available about this satellite. Check back as we update our databases every day.


Newsletter sign-up

Weekly statistics, charts and insights to help you stay on top of the space industry.